Weather History for KPVC - January, 2012

Change the Weather History Date:

Thursday, January 19, 2012

  Actual Average Record
Temperature  
Mean Temperature 28 °F -  
Max Temperature 35 °F 32 °F 48 °F (1999)
Min Temperature 24 °F 22 °F 6 °F (1997)
Degree Days  
Heating Degree Days 36    
Moisture  
Dew Point 15 °F    
Average Humidity 58    
Maximum Humidity 69    
Minimum Humidity 50    
Precipitation  
Precipitation 0.00 in - - ()
Sea Level Pressure  
Sea Level Pressure 30.18 in    
Wind  
Wind Speed 10 mph (ENE)    
Max Wind Speed 17 mph    
Max Gust Speed 24 mph    
Visibility 10 miles    
Events      
Averages and records for this station are not official NWS values.
T = Trace of Precipitation, MM = Missing Value Source: NWS Daily Summary

Daily Weather History Graph

Daily Weather History Graph

Search for Another Location

Airport or City:

Trip Planner

Search our weather history database for the weather conditions in past years. The results will help you decide how hot, cold, wet, or windy it might be!

Date:

Astronomy

Jan. 19, 2012 Rise Set
Actual Time 7:04 AM EST 4:38 PM EST
Civil Twilight 6:34 AM EST 5:09 PM EST
Nautical Twilight 5:59 AM EST 5:43 PM EST
Astronomical Twilight 5:26 AM EST 6:16 PM EST
Moon 3:38 AM EST (1/19) 1:06 PM EST (1/19)
Length of Visible Light 10h 35m
Length of Day
9h 33m
Waning Crescent, 16% of the Moon is Illuminated
Jan 19
Waning Crescent
Jan 23
New
Jan 30
First Quarter
Feb 7
Full
Feb 14
Last Quarter

Hourly Weather History & Observations

Time (EST) Temp. Windchill Dew Point Humidity Pressure Visibility Wind Dir Wind Speed Gust Speed Precip Events Conditions
12:15 AM 24.8 °F 12.9 °F 8.6 °F 50% 30.15 in 10.0 mi NW 13.8 mph 24.2 mph N/A   Clear
12:35 AM 24.8 °F 12.9 °F 8.6 °F 50% 30.15 in 10.0 mi NW 13.8 mph 20.7 mph N/A   Clear
12:55 AM 24.8 °F 13.4 °F 10.4 °F 54% 30.17 in 10.0 mi NW 12.7 mph 17.3 mph N/A   Clear
1:15 AM 24.8 °F 14.0 °F 10.4 °F 54% 30.17 in 10.0 mi NW 11.5 mph 18.4 mph N/A   Clear
1:35 AM 24.8 °F 14.0 °F 10.4 °F 54% 30.16 in 10.0 mi NNW 11.5 mph 16.1 mph N/A   Clear
2:15 AM 24.8 °F 12.4 °F 10.4 °F 54% 30.16 in 10.0 mi NW 15.0 mph - N/A   Clear
2:35 AM 24.8 °F 15.3 °F 10.4 °F 54% 30.17 in 10.0 mi North 9.2 mph 18.4 mph N/A   Partly Cloudy
2:55 AM 24.8 °F 13.4 °F 10.4 °F 54% 30.17 in 10.0 mi North 12.7 mph 16.1 mph N/A   Partly Cloudy
3:15 AM 24.8 °F 16.1 °F 10.4 °F 54% 30.17 in 10.0 mi NW 8.1 mph - N/A   Scattered Clouds
3:35 AM 24.8 °F 16.1 °F 12.2 °F 59% 30.19 in 10.0 mi NNE 8.1 mph - N/A   Mostly Cloudy
3:55 AM 26.6 °F 17.5 °F 12.2 °F 55% 30.19 in 10.0 mi NNE 9.2 mph - N/A   Overcast
4:15 AM 26.6 °F 19.1 °F 12.2 °F 55% 30.19 in 10.0 mi NE 6.9 mph - N/A   Overcast
4:55 AM 26.6 °F 19.1 °F 12.2 °F 55% 30.20 in 10.0 mi NE 6.9 mph - N/A   Overcast
5:15 AM 26.6 °F 19.1 °F 10.4 °F 51% 30.22 in 10.0 mi NE 6.9 mph - N/A   Overcast
5:35 AM 26.6 °F - 12.2 °F 55% 30.21 in 10.0 mi Calm Calm - N/A   Overcast
5:55 AM 26.6 °F - 12.2 °F 55% 30.22 in 10.0 mi Calm Calm - N/A   Overcast
6:15 AM 26.6 °F 17.5 °F 14.0 °F 59% 30.23 in 10.0 mi East 9.2 mph - N/A   Overcast
6:35 AM 26.6 °F 17.5 °F 12.2 °F 55% 30.23 in 10.0 mi NE 9.2 mph - N/A   Overcast
6:55 AM 26.6 °F 16.2 °F 12.2 °F 55% 30.24 in 10.0 mi NE 11.5 mph - N/A   Overcast
7:35 AM 26.6 °F 15.7 °F 10.4 °F 51% 30.26 in 10.0 mi NNE 12.7 mph 16.1 mph N/A   Partly Cloudy
7:55 AM 26.6 °F 16.2 °F 12.2 °F 55% 30.27 in 10.0 mi NNE 11.5 mph 17.3 mph N/A   Scattered Clouds
8:15 AM 26.6 °F 16.8 °F 10.4 °F 51% 30.27 in 10.0 mi NNE 10.4 mph 18.4 mph N/A   Partly Cloudy
8:35 AM 28.4 °F 17.5 °F 12.2 °F 51% 30.28 in 10.0 mi North 13.8 mph - N/A   Mostly Cloudy
8:55 AM 28.4 °F 19.1 °F 14.0 °F 55% 30.28 in 10.0 mi NNE 10.4 mph - N/A   Mostly Cloudy
9:15 AM 28.4 °F 17.5 °F 15.8 °F 59% 30.28 in 10.0 mi NE 13.8 mph 18.4 mph N/A   Overcast
9:55 AM 28.4 °F 18.0 °F 15.8 °F 59% 30.26 in 10.0 mi NNE 12.7 mph 19.6 mph N/A   Mostly Cloudy
10:15 AM 28.4 °F 16.2 °F 15.8 °F 59% 30.25 in 10.0 mi NE 17.3 mph 20.7 mph N/A   Overcast
10:35 AM 28.4 °F 18.0 °F 15.8 °F 59% 30.25 in 10.0 mi NE 12.7 mph 16.1 mph N/A   Mostly Cloudy
10:55 AM 28.4 °F 19.1 °F 15.8 °F 59% 30.26 in 10.0 mi ENE 10.4 mph 18.4 mph N/A   Overcast
11:15 AM 28.4 °F 19.1 °F 15.8 °F 59% 30.24 in 10.0 mi NE 10.4 mph 17.3 mph N/A   Overcast
11:35 AM 28.4 °F 19.1 °F 15.8 °F 59% 30.24 in 10.0 mi NE 10.4 mph 17.3 mph N/A   Overcast
11:55 AM 28.4 °F 20.4 °F 15.8 °F 59% 30.23 in 10.0 mi ENE 8.1 mph - N/A   Overcast
12:35 PM 28.4 °F 23.3 °F 17.6 °F 64% 30.23 in 5.0 mi NE 4.6 mph - N/A   Overcast
12:55 PM 30.2 °F 22.6 °F 17.6 °F 60% 30.22 in 10.0 mi East 8.1 mph - N/A   Overcast
1:15 PM 30.2 °F 22.6 °F 19.4 °F 64% 30.21 in 10.0 mi East 8.1 mph - N/A   Overcast
1:35 PM 30.2 °F 22.6 °F 17.6 °F 60% 30.20 in 10.0 mi East 8.1 mph - N/A   Overcast
1:55 PM 30.2 °F 21.9 °F 19.4 °F 64% 30.20 in 10.0 mi ENE 9.2 mph - N/A   Overcast
2:15 PM 28.4 °F 22.2 °F 17.6 °F 64% 30.19 in 10.0 mi East 5.8 mph - N/A   Overcast
2:35 PM 30.2 °F 21.3 °F 17.6 °F 60% 30.19 in 10.0 mi East 10.4 mph - N/A   Mostly Cloudy
3:15 PM 30.2 °F 21.3 °F 19.4 °F 64% 30.17 in 10.0 mi East 10.4 mph - N/A   Clear
3:35 PM 28.4 °F 19.1 °F 17.6 °F 64% 30.16 in 10.0 mi East 10.4 mph - N/A   Clear
4:15 PM 28.4 °F 23.3 °F 17.6 °F 64% 30.17 in 10.0 mi ESE 4.6 mph - N/A   Clear
4:35 PM 28.4 °F 21.2 °F 17.6 °F 64% 30.16 in 10.0 mi East 6.9 mph - N/A   Partly Cloudy
4:55 PM 28.4 °F 20.4 °F 15.8 °F 59% 30.15 in 10.0 mi East 8.1 mph - N/A   Partly Cloudy
5:15 PM 26.6 °F 20.0 °F 17.6 °F 69% 30.15 in 10.0 mi ESE 5.8 mph - N/A   Clear
5:55 PM 28.4 °F 21.2 °F 17.6 °F 64% 30.13 in 10.0 mi ESE 6.9 mph - N/A   Clear
6:15 PM 28.4 °F 23.3 °F 17.6 °F 64% 30.13 in 10.0 mi ESE 4.6 mph - N/A   Clear
6:35 PM 28.4 °F 22.2 °F 17.6 °F 64% 30.13 in 10.0 mi SE 5.8 mph - N/A   Clear
6:55 PM 28.4 °F 22.2 °F 17.6 °F 64% 30.13 in 10.0 mi SE 5.8 mph - N/A   Clear
7:15 PM 30.2 °F 24.3 °F 17.6 °F 60% 30.11 in 10.0 mi SE 5.8 mph - N/A   Clear
7:35 PM 30.2 °F 21.9 °F 19.4 °F 64% 30.11 in 10.0 mi SE 9.2 mph - N/A   Mostly Cloudy
8:15 PM 32.0 °F 24.2 °F 19.4 °F 60% 30.10 in 10.0 mi SE 9.2 mph - N/A   Overcast
8:35 PM 32.0 °F 24.2 °F 19.4 °F 60% 30.09 in 10.0 mi SSE 9.2 mph - N/A   Overcast
9:15 PM 33.8 °F 27.0 °F 21.2 °F 60% 30.07 in 10.0 mi SE 8.1 mph - N/A   Overcast
9:35 PM 33.8 °F 26.4 °F 21.2 °F 60% 30.06 in 10.0 mi SE 9.2 mph 17.3 mph N/A   Overcast
9:55 PM 33.8 °F 25.8 °F 21.2 °F 60% 30.04 in 10.0 mi SE 10.4 mph - N/A   Overcast
10:15 PM 35.6 °F 28.0 °F 21.2 °F 56% 30.03 in 10.0 mi SE 10.4 mph - N/A   Overcast
10:55 PM 35.6 °F 27.5 °F 21.2 °F 56% 29.99 in 10.0 mi SE 11.5 mph 18.4 mph N/A   Overcast
11:15 PM 35.6 °F 26.2 °F 21.2 °F 56% 29.97 in 10.0 mi SE 15.0 mph 18.4 mph N/A   Overcast
11:35 PM 35.6 °F 26.6 °F 23.0 °F 60% 29.97 in 10.0 mi SE 13.8 mph 21.9 mph N/A   Mostly Cloudy
11:55 PM 35.6 °F 27.1 °F 24.8 °F 65% 29.96 in 10.0 mi SE 12.7 mph 20.7 mph N/A   Overcast